GW4379 Weather Reports


Display with metric or nautical units.
time (UTC)temp
F
wind
direction
speed
MPH
gust
MPH
rain 1hr
in
rain 24hr
in
rain mn
in
humidity
%
barometer
mb
20260508230056 66 197 3.0 4.0 0.00 0.00 0.00 57 1013.7
20260508224649 67 226 1.0 4.0 0.00 0.00 0.00 57 1013.7
20260508223053 67 207 2.0 6.0 0.00 0.00 0.00 58 1013.9
20260508221548 67 181 3.0 6.0 0.00 0.00 0.00 56 1013.8
20260508220057 67 161 4.0 7.0 0.00 0.00 0.00 55 1013.7
20260508214553 68 142 3.0 7.0 0.00 0.00 0.00 54 1013.5
20260508213053 68 191 3.0 9.0 0.00 0.00 0.00 54 1013.7
20260508211554 68 196 3.0 10.0 0.00 0.00 0.00 53 1013.7
20260508210055 69 186 2.0 8.0 0.00 0.00 0.00 51 1013.5
20260508204552 69 158 3.0 6.0 0.00 0.00 0.00 52 1013.6
20260508203107 68 204 3.0 7.0 0.00 0.00 0.00 50 1013.7
20260508201600 69 209 2.0 11.0 0.00 0.00 0.00 51 1013.9
20260508200049 69 186 3.0 11.0 0.00 0.00 0.00 51 1014.2
20260508194552 69 279 2.0 7.0 0.00 0.00 0.00 52 1014.4
20260508193052 70 142 2.0 8.0 0.00 0.00 0.00 48 1014.7
20260508191552 70 183 7.0 12.0 0.00 0.00 0.00 51 1014.9
20260508190052 70 169 3.0 8.0 0.00 0.00 0.00 52 1015.1
20260508184553 68 273 2.0 7.0 0.00 0.00 0.00 47 1015.5
20260508183048 70 165 4.0 9.0 0.00 0.00 0.00 46 1015.5
20260508181558 68 283 1.0 6.0 0.00 0.00 0.00 51 1015.7
20260508180052 70 184 4.0 11.0 0.00 0.00 0.00 49 1015.9
20260508174556 70 183 3.0 6.0 0.00 0.00 0.00 50 1015.9
20260508173050 70 271 2.0 6.0 0.00 0.00 0.00 51 1016.2
20260508171553 70 39 1.0 6.0 0.00 0.00 0.00 48 1016.2
20260508170053 67 182 2.0 7.0 0.00 0.00 0.00 51 1016.8
20260508164556 67 257 2.0 7.0 0.00 0.00 0.00 53 1016.8
20260508163048 67 188 2.0 6.0 0.00 0.00 0.00 51 1017.2
20260508161559 67 218 1.0 5.0 0.00 0.00 0.00 51 1017.2
20260508160053 66 161 2.0 7.0 0.00 0.00 0.00 52 1017.4
20260508154608 67 215 1.0 6.0 0.00 0.00 0.00 50 1017.7
20260508153051 66 179 2.0 5.0 0.00 0.00 0.00 58 1017.9
20260508151552 65 164 1.0 3.0 0.00 0.00 0.00 56 1017.8
20260508150059 64 204 1.0 6.0 0.00 0.00 0.00 55 1017.9
20260508144548 63 189 1.0 4.0 0.00 0.00 0.00 60 1017.8
20260508143106 64 67 2.0 5.0 0.00 0.00 0.00 56 1017.8
20260508141549 64 90 2.0 6.0 0.00 0.00 0.00 56 1017.9
20260508134550 62 142 1.0 4.0 0.00 0.10 0.00 57 1018.2
20260508133059 63 44 1.0 4.0 0.00 0.10 0.00 58 1018.2
20260508131600 62 107 1.0 2.0 0.00 0.10 0.00 60 1018.0
20260508130054 60 0 0.0 3.0 0.00 0.10 0.00 68 1017.6
20260508124551 59 14 1.0 2.0 0.00 0.11 0.00 68 1017.6
20260508123053 57 19 0.0 1.0 0.00 0.11 0.00 74 1017.6
20260508121552 56 19 0.0 3.0 0.00 0.11 0.00 76 1017.3
20260508120052 55 63 0.0 2.0 0.00 0.11 0.00 85 1017.1
20260508114548 51 0 0.0 2.0 0.00 0.19 0.00 89 1017.1
20260508113049 49 238 0.0 2.0 0.00 0.19 0.00 90 1016.7
20260508111601 49 237 0.0 2.0 0.00 0.19 0.00 91 1016.3
20260508104549 47 228 0.0 2.0 0.00 0.29 0.00 92 1015.7
20260508103053 47 0 1.0 2.0 0.00 0.29 0.00 92 1015.7
20260508101550 48 0 0.0 2.0 0.00 0.29 0.00 92 1015.4
20260508100050 48 0 0.0 2.0 0.00 0.29 0.00 91 1015.1
20260508094550 48 228 0.0 2.0 0.00 0.32 0.00 91 1014.9
20260508093053 48 228 0.0 2.0 0.00 0.32 0.00 91 1014.9
20260508091601 49 228 0.0 2.0 0.00 0.32 0.00 91 1014.9
20260508090050 49 228 0.0 2.0 0.00 0.32 0.00 92 1014.5
20260508084559 49 228 0.0 2.0 0.00 0.42 0.00 92 1014.7
20260508083056 49 228 0.0 2.0 0.00 0.42 0.00 92 1014.7
20260508081549 49 0 0.0 2.0 0.00 0.42 0.00 91 1014.5
20260508080109 49 0 0.0 2.0 0.00 0.42 0.00 90 1014.5
20260508074558 50 228 0.0 2.0 0.00 0.63 0.00 90 1014.5
20260508073057 50 228 0.0 2.0 0.00 0.63 0.00 90 1014.4
20260508071548 50 0 0.0 2.0 0.00 0.63 0.00 91 1014.4
20260508070054 50 0 0.0 2.0 0.00 0.63 0.00 90 1014.3
20260508064558 50 0 0.0 2.0 0.00 0.79 0.00 89 1014.1
20260508063053 51 0 0.0 1.0 0.00 0.79 0.00 88 1014.0
20260508061553 51 0 0.0 0.0 0.00 0.79 0.00 87 1014.0
20260508060052 52 0 0.0 0.0 0.00 0.79 0.00 86 1014.0
20260508054550 52 0 0.0 2.0 0.00 1.10 0.00 85 1014.3
20260508053055 52 228 0.0 2.0 0.00 1.10 0.00 85 1014.3
20260508051603 53 0 0.0 2.0 0.00 1.10 0.00 84 1014.1
20260508050105 54 213 0.0 2.0 0.00 1.10 0.00 81 1014.2
20260508044555 55 250 0.0 2.0 0.00 1.20 0.00 79 1014.0
20260508043048 55 67 0.0 2.0 0.00 1.20 0.00 75 1013.8
20260508041558 56 67 0.0 2.0 0.00 1.20 0.00 76 1013.6
20260508040100 57 0 0.0 2.0 0.00 1.20 0.00 73 1013.3
20260508034551 58 0 0.0 2.0 0.00 1.20 1.20 69 1013.7
20260508033051 58 30 1.0 2.0 0.00 1.20 1.20 68 1013.7
20260508031552 58 360 1.0 2.0 0.00 1.20 1.20 67 1013.6
20260508030057 58 0 0.0 2.0 0.00 1.20 1.20 68 1013.4
20260508024554 59 5 0.0 2.0 0.00 1.20 1.20 69 1013.4
20260508023050 59 5 0.0 3.0 0.00 1.20 1.20 69 1013.0
20260508021552 59 5 1.0 3.0 0.00 1.20 1.20 69 1012.8
20260508020056 60 11 1.0 6.0 0.00 1.20 1.20 69 1012.5
20260508014552 60 337 3.0 7.0 0.00 1.37 1.20 70 1012.2
20260508013053 60 5 2.0 5.0 0.00 1.37 1.20 70 1011.9
20260508011551 61 339 2.0 4.0 0.00 1.37 1.20 70 1011.7
20260508010050 62 360 2.0 4.0 0.00 1.37 1.20 71 1011.3
20260508004552 62 352 2.0 4.0 0.00 1.43 1.20 70 1011.2
20260508003053 63 46 2.0 5.0 0.00 1.43 1.20 69 1010.9
20260508001554 64 5 2.0 6.0 0.00 1.43 1.20 67 1010.5
20260508000058 65 360 2.0 5.0 0.00 1.43 1.20 65 1010.1
20260507234555 66 9 3.0 6.0 0.00 1.92 1.20 64 1009.9
20260507233112 67 340 3.0 8.0 0.00 1.92 1.20 64 1009.7
20260507231553 69 302 3.0 8.0 0.00 1.92 1.20 64 1009.5